Location: Dattensoll
(49.9928°N, 9.8954°E)
Time: 01:29:17
(UTC+00:00)

PSLV R/B - Pass Details

Date: 19 May 2025
Orbit: 400 x 430 km, 97.7° (Epoch: 23 June)

Event Time Altitude Azimuth Distance (km) Brightness Sun altitude
Exits shadow 19:22:18 - 110° (ESE) 2,069 6.1 -3.0°
Reaches altitude 10° 19:24:26 10° 84° (E) 1,508 5.6 -3.3°
Drops below altitude 10° 19:27:04 10° 36° (NE) 1,523 6.1 -3.6°
Enters shadow 20:20:26 -72° 169° (SSE) 12,551 10.6 -9.9°
Maximum altitude 20:57:26 55° 259° (W) 511 3.8 -13.5°
